Hourly Data Report for October 18, 2015

All times are specified in Local Standard Time (LST). Add 1 hour to adjust for Daylight Saving Time where and when it is observed.

ARVIAT A
NUNAVUT

61°05'38.000" N
94°04'18.000" W
10.40 m
2300427
71174
YEK

Download Data

Hourly Data (October 2015)
Hourly Data Report for October 18, 2015
Temp Definition
°C
Dew Point Temp Definition
°C
Rel Hum Definition
%
Wind Dir Definition
10's deg

Wind Spd Definition
km/h
Visibility Definition
km
Stn Press Definition
kPa
Hmdx Definition


Wind Chill Definition


Weather Definition


TIME
00:00 Legend Double Dagger -6.4 -6.6 99 11 9 4.0 101.27   -11 Fog
01:00 Legend Double Dagger -3.1 -3.1 100 14 18 16.1 101.12   -9 LegendNANA
02:00 Legend Double Dagger -2.3 -2.6 98 14 21 16.1 101.00   -8 LegendNANA
03:00 Legend Double Dagger -1.1 -2.8 88 14 22 16.1 100.86   -7 LegendNANA
04:00 Legend Double Dagger -0.6 -2.5 87 13 28 16.1 100.67   -7 LegendNANA
05:00 Legend Double Dagger -0.5 -1.6 92 12 35 4.8 100.48   -8 Snow
06:00 Legend Double Dagger -0.4 -0.5 99 12 39 2.0 100.24   -8 Snow
07:00 Legend Double Dagger 0.1 0.1 100 11 41 2.8 100.02     Snow
08:00 Legend Double Dagger 0.3 0.3 100 11 43 2.0 99.82     Snow
09:00 Legend Double Dagger 0.4 0.4 100 11 37 3.2 99.68     Snow
10:00 Legend Double Dagger 0.4 0.4 100 11 34 4.8 99.46     Snow
11:00 Legend Double Dagger 0.6 0.6 100 11 37 12.9 99.24     Rain
12:00 Legend Double Dagger 0.7 0.7 100 11 35 16.1 99.05     Rain
13:00 Legend Double Dagger 0.4 0.4 100 10 30 3.2 98.84     Snow
14:00 Legend Double Dagger 0.3 0.3 100 9 24 3.6 98.71     Snow
15:00 Legend Double Dagger 0.3 0.3 100 7 21 4.8 98.64     Snow
16:00 Legend Double Dagger 0.3 0.3 100 5 26 4.0 98.50     Snow
17:00 Legend Double Dagger 0.5 0.5 100 5 32 16.1 98.42     Rain
18:00 Legend Double Dagger 0.7 0.7 100 4 34 4.8 98.42     Snow
19:00 Legend Double Dagger 0.7 0.7 100 2 37 9.7 98.50     Rain,Snow
20:00 Legend Double Dagger 0.1 0.0 99 1 43 3.2 98.58     Rain,Snow
21:00 Legend Double Dagger -1.3 -1.6 98 1 55 1.6 98.70   -10 Snow
22:00 Legend Double Dagger -2.9 -3.2 98 36 63 1.6 98.83   -13 Snow
23:00 Legend Double Dagger -4.0 -4.4 97 35 63 2.0 98.99   -15 Snow

Notes on Data Quality.

Legend

  • E = Estimated
  • M = Missing
  • NA = Not Available
  • ‡ = Partner data that is not subject to review by the National Climate Archives
Date modified: